Weather History for Kirksville, MO

Change the Weather History Date:

Tuesday, May 14, 2013

  Actual Average Record
Temperature  
Mean Temperature 72 °F 61 °F  
Max Temperature 88 °F 72 °F 90 °F (1944)
Min Temperature 55 °F 51 °F 33 °F (1966)
Degree Days  
Heating Degree Days 0 5  
Month to date heating degree days 158 96  
Since 1 July heating degree days 6004 5786  
Cooling Degree Days 7 2  
Month to date cooling degree days 7 14  
Year to date cooling degree days 17 21  
Growing Degree Days 22 (Base 50)    
Moisture  
Dew Point 54 °F    
Average Humidity 55    
Maximum Humidity 80    
Minimum Humidity 29    
Precipitation  
Precipitation 0.00 in 0.14 in 2.23 in (1981)
Month to date precipitation 1.44 2.34  
Year to date precipitation 17.41 11.53  
Sea Level Pressure  
Sea Level Pressure 29.82 in    
Wind  
Wind Speed 11 mph (SW)    
Max Wind Speed 21 mph    
Max Gust Speed 29 mph    
Visibility 10 miles    
Events      
T = Trace of Precipitation, MM = Missing Value Source: NWS Daily Summary

Daily Weather History Graph

Daily Weather History Graph

Search for Another Location

Airport:

Trip Planner

Search our weather history database for the weather conditions in past years. The results will help you decide how hot, cold, wet, or windy it might be!

Date:

Astronomy

May. 14, 2013 Rise Set
Actual Time 5:55 AM CDT 8:18 PM CDT
Civil Twilight 5:24 AM CDT 8:48 PM CDT
Nautical Twilight 4:46 AM CDT 9:26 PM CDT
Astronomical Twilight 4:05 AM CDT 10:09 PM CDT
Moon 9:35 AM CDT (5/14) No Moon Set
Length of Visible Light 15h 24m
Length of Day
14h 22m
Waxing Crescent, 19% of the Moon is Illuminated
May 14
Waxing Crescent
May 17
First Quarter
May 24
Full
May 31
Last Quarter
Jun 8
New

Hourly Weather History & Observations

Time (CDT) Temp. Heat Index Dew Point Humidity Pressure Visibility Wind Dir Wind Speed Gust Speed Precip Events Conditions
12:55 AM 55.9 °F - 48.0 °F 75% 29.94 in 10.0 mi South 5.8 mph - N/A   Clear
1:55 AM 55.0 °F - 48.9 °F 80% 29.91 in 10.0 mi SSW 5.8 mph - N/A   Clear
2:55 AM 57.0 °F - 51.1 °F 81% 29.89 in 10.0 mi SSW 8.1 mph - N/A   Clear
3:55 AM 60.1 °F - 53.1 °F 78% 29.87 in 10.0 mi SW 9.2 mph - N/A   Clear
4:55 AM 60.1 °F - 53.1 °F 78% 29.86 in 10.0 mi SW 10.4 mph - N/A   Clear
5:55 AM 59.0 °F - 53.1 °F 81% 29.85 in 10.0 mi SW 8.1 mph - N/A   Clear
6:55 AM 59.0 °F - 53.1 °F 81% 29.86 in 10.0 mi SW 6.9 mph - N/A   Clear
7:55 AM 64.0 °F - 55.0 °F 73% 29.86 in 10.0 mi SW 8.1 mph 17.3 mph N/A   Clear
8:55 AM 69.1 °F - 57.0 °F 65% 29.86 in 10.0 mi WSW 8.1 mph - N/A   Clear
9:55 AM 73.9 °F - 55.9 °F 53% 29.85 in 10.0 mi WSW 9.2 mph - N/A   Clear
10:55 AM 78.1 °F - 57.9 °F 50% 29.85 in 10.0 mi SW 9.2 mph - N/A   Clear
11:55 AM 80.1 °F 80.6 °F 57.9 °F 47% 29.85 in 10.0 mi SW 9.2 mph - N/A   Clear
12:55 PM 82.9 °F 83.2 °F 60.1 °F 46% 29.83 in 10.0 mi SSW 9.2 mph 17.3 mph N/A   Clear
1:55 PM 84.9 °F 84.2 °F 57.9 °F 40% 29.82 in 10.0 mi SSW 15.0 mph - N/A   Clear
2:55 PM 88.0 °F 87.1 °F 59.0 °F 37% 29.80 in 10.0 mi South 15.0 mph 20.7 mph N/A   Clear
3:55 PM 88.0 °F 86.5 °F 55.9 °F 34% 29.78 in 10.0 mi SW 15.0 mph 25.3 mph N/A   Clear
4:55 PM 88.0 °F 86.5 °F 55.9 °F 34% 29.76 in 10.0 mi SW 15.0 mph 26.5 mph N/A   Clear
5:55 PM 88.0 °F 86.5 °F 55.9 °F 34% 29.75 in 10.0 mi SW 13.8 mph 25.3 mph N/A   Clear
6:55 PM 87.1 °F - 52.0 °F 30% 29.74 in 10.0 mi SW 13.8 mph 21.9 mph N/A   Clear
7:55 PM 84.0 °F - 50.0 °F 31% 29.74 in 10.0 mi SW 12.7 mph 23.0 mph N/A   Clear
8:55 PM 82.0 °F - 48.9 °F 31% 29.76 in 10.0 mi SW 15.0 mph 20.7 mph N/A   Clear
9:55 PM 79.0 °F - 48.0 °F 34% 29.78 in 10.0 mi SW 13.8 mph 21.9 mph N/A   Clear
10:55 PM 77.0 °F - 51.1 °F 40% 29.79 in 10.0 mi SW 16.1 mph 24.2 mph N/A   Clear
11:55 PM 75.0 °F - 55.0 °F 50% 29.80 in 10.0 mi SW 13.8 mph 23.0 mph N/A   Clear